Weather in Fernando De Noronha

Brazil     3°51′26″S   32°25′35″W
temp.,
°C
wind,
m/s
gust,
m/s
humid.,
%
clouds,
%
prec.,
mm/h
press.,
hPa
HPBL,
m
13 june, sun
sun1301:00+26e658196 0.0 1013668
04:00+26ese5581100 0.0 1012569
07:00+26ese457986 0.0 1014711
10:00+27ese447764 0.0 1016819
13:00+27ese34775 0.3 1014518
16:00+27ese44784 1.6 1013588
19:00+27ese457897 0.1 1014623
22:00+27ese5578100 0.1 1015682
14 june, mon
mon1401:00+27ese4578100 0.0 1015709
04:00+27ese55796 1.5 1014525
07:00+27ese557420 0.1 1015716
10:00+27ese45744 0.1 1016689
13:00+27e45757 0.1 1015737
16:00+27e55777 0.2 1013750
19:00+27e55781 0.9 1014621
22:00+26e55811 2.6 1016491
15 june, tue
tue1501:00+26e55825 2.6 1015448
04:00+26e55795 2.9 1014656
07:00+26e458019 0.2 1015653
10:00+27e457817 2.1 1016614
13:00+27e44767 1.1 1015719
16:00+27ese44766 1.9 1013718
19:00+27ese457713 0.0 1014767
22:00+27ese557813 0.1 1015743
16 june, wed
wed1601:00+27ese55797 0.2 1014730
04:00+27ese558018 0.3 1013695
07:00+27ese667814 0.7 1014794
10:00+27se56785 1.3 1015722
13:00+27se56765 0.3 1014837
16:00+27se66777 0.5 1012784
19:00+27se66764 0.5 1014845
22:00+27ese77795 0.6 1015769
17 june, thu
thu1701:00+27se787912 0.1 1014808
04:00+27se78798 0.4 1014831
07:00+27se88796 0.1 1015859
10:00+27ese89785 0.2 1015938
13:00+27ese78793 0.4 1014888
16:00+27ese787911 0.8 1013852
19:00+27ese78807 0.9 1014783
22:00+27ese788118 1.8 1016762